Regional Weather Roundup
Issued by NWS

Home | Current Version | Previous Version | Text Only | Print | Product List | Glossary On
Versions: 1 2 3 4 5 6 7 8 9 10 11 12 13 14 15 16 17 18 19 20 21 22 23 24 25 26 27 28 29 30 31 32 33 34 35 36 37 38 39 40 41 42 43 44 45 46 47 48 49 50
000
ASUS44 KBMX 222310
RWRAL

ALABAMA REGIONAL WEATHER ROUNDUP
NATIONAL WEATHER SERVICE BIRMINGHAM AL
600 PM CDT TUE MAY 22 2018

NOTE: "FAIR" INDICATES FEW OR NO CLOUDS BELOW 12,000 FEET
WITH NO SIGNIFICANT WEATHER AND/OR OBSTRUCTIONS TO VISIBILITY.

THE REMARK "TC" DENOTES TEMPERATURE IN DEGREES CELSIUS.

ALZ001>011-014-016>018-020-230000-
NORTH ALABAMA

CITY           SKY/WX    TMP DP  RH WIND       PRES   REMARKS
MUSCLE SHOALS  FAIR      84  68  58 CALM      29.99S
HUNTSVILLE     PTSUNNY   86  67  52 SE3       29.98S
DECATUR        FAIR      83  68  60 NE3       29.99S
HALEYVILLE     FAIR      81  72  74 CALM      30.02
GADSDEN        FAIR      77  72  84 E9        30.00
$$

ALZ012-013-022-023-030>036-040>044-230000-
WEST CENTRAL ALABAMA

CITY           SKY/WX    TMP DP  RH WIND       PRES   REMARKS
TUSCALOOSA     FAIR      86  67  52 NW5       29.97R
DEMOPOLIS      FAIR      83  67  59 CALM      29.97S
$$

ALZ015-024>026-033>036-041>044-230000-
CENTRAL ALABAMA

CITY           SKY/WX    TMP DP  RH WIND       PRES   REMARKS
BIRMINGHAM     PTSUNNY   80  71  74 SE8       30.01S
MONTGOMERY     FAIR      81  73  76 E7        29.98S
SHELBY CO ARPT FAIR      78  71  79 CALM      29.99F
MAXWELL AFB    FAIR      82  72  71 NE6       29.98R
GREENVILLE     FAIR      80  70  71 S7        29.98S
SELMA          FAIR      86  66  51 VRB3      29.96S
PRATTVILLE     FAIR      80  71  75 E5        29.98R
BESSEMER       MOCLDY    77  72  84 SE3       30.01R
TALLADEGA      FAIR      79  71  76 E6        30.00F
PELL CITY      MOCLDY    79  73  83 CALM      30.00S
MARION         FAIR      85  68  57 CALM      29.96S
SYLACAUGA      PTSUNNY   77  73  85 SE3       30.01R
$$

ALZ019-021-028-029-037-038-045>048-230000-
EAST CENTRAL ALABAMA

CITY           SKY/WX    TMP DP  RH WIND       PRES   REMARKS
ANNISTON       CLOUDY    76  70  82 NE6       30.01S
ALEXANDER CITY FAIR      74  74 100 CALM      30.02R
AUBURN         PTSUNNY   74  71  91 SE7       30.03F
$$

ALZ051>064-230000-
SOUTHWEST ALABAMA

CITY           SKY/WX    TMP DP  RH WIND       PRES   REMARKS
MOBILE         PTSUNNY   74  70  87 S3        29.99F
BROOKLEY FIELD FAIR      82  74  76 W5        29.99S
EVERGREEN      CLOUDY    81  70  69 S10       29.99R
$$

ALZ049-050-065>069-230000-
SOUTHEAST ALABAMA

CITY           SKY/WX    TMP DP  RH WIND       PRES   REMARKS
DOTHAN         FAIR      78  71  79 S7        30.04S
OZARK          FAIR      79  73  83 SE6       29.99F
TROY           FAIR      74  70  87 SE5       30.00F
EUFAULA        FAIR      78  69  73 SW5       30.01R
$$



USA.gov is the U.S. government's official web portal to all federal, state and local government web resources and services.